Presure
188 96 96 77 71 83 82 92 84 87 73 173 172 92 83 184 173 194 163 198 195 204 269 291 258 216 224 221 226 202 215 212 276 282 299 298 300 307 325 286 287 274 264
90 81 92 92 110 86 109 93 89 113 89 94 110 107 188 174 191 180 188 189 208 216 256 249 242 217 210 210 200 211 210 222 215 271 293 307 303 313 328 287 283 276 261
77 85 93 175 126 89 83 68 136 159 166 173 167 188 173 176 194 184 161 189 192 241 246 234 226 208 207 202 195 191 213 212 217 210 274 302 310 309 329 288 278 274 263
83 83 155 157 171 180 171 176 172 172 185 187 187 185 181 178 175 162 132 195 224 245 229 219 223 208 210 203 196 212 209 209 211 216 225 282 312 306 328 288 267 259 252
170 162 163 166 164 167 169 180 167 175 184 183 187 190 165 174 162 172 205 184 248 238 227 219 205 207 211 210 188 202 192 210 210 204 211 206 284 305 321 278 269 262 249
177 173 161 156 166 165 172 181 181 170 184 187 186 196 210 184 190 198 208 250 239 231 225 215 211 210 209 202 201 202 190 191 193 210 202 203 203 261 280 273 259 269 249
174 185 169 166 172 172 180 178 183 180 185 153 207 200 185 157 198 242 236 232 229 225 223 215 216 213 213 204 200 186 191 187 183 189 193 207 191 220 277 273 262 259 250
173 174 165 173 177 177 182 181 185 192 220 139 213 174 188 194 234 229 223 222 217 209 210 209 213 202 189 187 183 190 192 191 192 191 179 181 181 190 201 196 274 267 271
173 177 178 173 179 176 185 191 134 143 207 172 198 193 211 229 216 222 217 213 203 205 204 203 186 192 191 190 189 189 190 189 186 180 194 188 176 180 184 185 193 259 246
178 177 138 183 176 177 165 201 183 190 157 190 201 229 215 224 218 214 204 201 202 198 193 191 189 183 183 184 188 178 195 179 186 187 185 192 191 187 178 182 183 174 187
133 178 140 184 190 190 192 149 184 193 201 229 226 240 218 214 209 196 193 189 191 195 194 185 187 200 191 189 191 191 198 198 195 198 198 193 191 190 186 196 190 182 187
177 177 180 170 187 170 189 193 241 224 230 216 215 212 200 186 198 190 186 193 238 242 249 248 224 224 216 219 226 228 219 205 202 204 192 195 197 199 194 178 194 200 173
186 153 156 188 189 201 243 225 231 216 214 204 190 186 192 191 196 205 227 233 239 228 220 235 248 234 225 229 232 220 231 242 230 231 224 222 222 200 191 194 198 196 193
180 183 189 225 229 219 217 214 211 193 194 199 207 211 221 234 221 222 207 206 221 239 223 218 241 260 249 242 239 245 245 247 235 243 238 235 227 228 221 218 210 206 202
217 224 221 221 217 193 190 190 198 203 210 205 200 203 240 229 218 214 227 222 240 239 244 243 233 191 240 235 215 246 238 241 215 254 247 242 246 238 233 222 226 226 212
219 217 210 201 173 200 205 209 212 201 190 187 185 236 207 204 225 230 198 217 241 227 180 241 238 184 244 255 240 264 267 262 254 242 243 255 246 245 235 251 157 208 232
172 177 203 211 189 181 169 210 188 201 198 221 212 215 234 224 205 223 206 188 252 216 219 241 257 256 252 266 251 234 261 227 255 257 247 237 248 252 220 238 242 245 239
201 196 186 200 207 187 202 215 191 200 204 204 215 224 176 219 215 208 239 217 267 272 254 260 267 244 278 278 278 255 281 273 275 260 250 242 256 256 244 240 257 262 249
210 183 199 210 220 212 199 228 224 195 217 167 215 225 220 224 242 247 272 267 265 271 273 274 275 280 284 282 279 285 285 287 281 287 280 284 290 283 269 289 264 268 276
194 207 187 210 211 224 225 203 181 206 181 214 214 194 185 245 253 267 277 275 279 290 299 293 294 296 296 292 283 284 302 331 333 329 320 320 330 337 196 321 325 327 313
210 173 218 162 159 199 212 171 199 212 222 198 202 242 251 263 280 285 286 290 296 303 294 305 303 309 315 323 338 343 349 357 374 402 360 366 323 354 386 386 401 410 409
198 218 191 217 199 208 224 227 223 218 211 246 254 265 278 298 307 302 306 299 305 308 310 336 338 373 377 349 375 385 315 381 379 381 375 371 371 377 376 370 369 365 362
222 197 167 212 229 228 232 236 240 252 257 270 291 296 309 315 306 314 311 317 351 356 346 366 383 381 366 369 359 385 391 391 395 393 394 385 390 379 375 343 311 374 374
214 215 225 231 240 236 238 248 257 264 290 315 312 321 341 363 337 376 387 363 360 366 377 374 418 415 410 407 88 400 399 395 395 393 392 391 389 388 388 389 391 393 390
202 217 227 242 250 249 258 264 275 323 332 345 373 379 382 367 357 364 379 381 394 410 409 417 254 486 485 470 463 458 451 446 440 439 440 440 441 430 423 388 380 377 382
233 247 238 256 259 266 271 301 360 381 380 376 364 355 373 367 383 411 418 400 390 375 419 407 400 401 402 400 399 400 405 407 407 413 418 423 426 427 431 439 466 467 440
Wind_Speed
56 38 38 26 26 36 36 46 41 44 40 67 71 54 51 70 75 68 69 71 71 75 58 42 45 52 48 45 44 45 44 44 43 42 37 33 31 31 32 41 43 45 46
38 37 43 45 46 44 52 49 49 57 55 58 59 58 72 76 71 76 74 72 79 72 53 49 45 49 50 47 46 42 42 44 39 45 40 32 31 30 27 39 40 44 43
37 44 49 61 54 48 46 30 54 75 78 79 77 74 78 76 75 74 66 73 72 55 51 50 48 52 51 50 47 45 42 42 42 35 44 33 23 22 24 35 36 40 40
49 48 58 60 66 68 71 73 75 78 77 77 76 76 77 77 76 68 65 78 67 52 54 54 50 52 52 52 51 47 46 42 40 40 35 37 22 20 19 31 33 35 39
60 60 62 65 69 72 75 77 81 81 78 79 79 80 73 78 71 74 85 70 53 52 53 53 54 56 53 52 47 50 46 46 43 38 36 31 28 21 18 27 31 34 38
64 65 67 71 73 76 79 81 83 83 83 83 82 87 92 79 82 87 67 49 51 52 53 54 56 56 55 53 52 51 46 43 43 44 39 34 31 28 24 26 30 32 38
67 71 71 74 77 79 81 84 85 85 86 69 93 89 83 62 93 63 62 60 58 56 56 57 57 58 58 56 54 49 48 45 41 40 43 44 36 31 29 27 32 35 39
72 74 75 77 80 82 86 86 88 92 99 67 96 71 90 94 70 68 68 66 65 64 63 62 61 58 55 55 54 56 55 53 50 46 41 38 36 39 37 33 33 37 38
76 78 79 81 84 86 88 91 62 67 95 72 98 97 99 76 85 73 72 72 72 70 69 67 63 63 61 60 59 60 60 58 53 48 53 49 44 41 38 39 39 36 38
81 82 60 87 87 86 76 95 90 95 69 96 102 82 94 81 81 81 81 80 80 77 74 72 70 66 67 67 67 59 68 58 60 60 56 58 53 49 48 44 42 42 43
59 86 62 91 94 94 95 68 93 101 105 88 87 74 89 89 91 87 87 83 85 86 83 75 77 85 79 77 77 76 80 77 72 72 71 66 64 59 53 59 54 48 49
87 87 90 81 96 81 99 102 73 94 85 92 92 92 94 91 96 94 91 95 82 81 81 82 97 97 99 97 94 93 92 86 84 83 75 74 74 75 70 60 63 65 57
92 70 76 97 100 97 73 92 83 92 93 95 97 97 101 100 104 105 91 84 83 90 98 89 86 93 98 95 95 98 95 91 97 93 91 88 86 79 74 76 76 72 67
93 95 98 85 81 91 93 94 95 96 98 102 106 109 102 88 100 104 109 108 97 98 105 107 94 88 91 94 94 91 92 95 97 96 96 95 94 92 90 89 88 87 83
90 81 87 88 91 89 94 98 101 103 104 104 107 108 94 101 107 110 99 108 106 105 102 97 92 92 88 95 105 100 102 98 90 96 99 99 98 99 98 94 95 94 95
86 87 89 91 92 96 98 101 102 100 101 104 108 101 111 113 104 108 119 114 113 106 81 111 111 77 92 94 100 94 95 96 98 99 100 101 104 106 106 104 63 93 100
88 90 92 91 94 96 97 100 99 103 106 111 111 111 111 111 107 115 103 95 116 116 123 111 100 99 97 103 103 108 98 99 100 102 107 110 109 111 106 113 109 112 112
86 87 92 93 93 98 97 104 99 103 106 108 115 117 93 120 113 122 126 106 123 119 109 110 115 108 115 113 113 105 113 104 105 105 110 117 114 117 120 113 113 119 119
91 90 92 98 104 102 96 109 112 107 117 88 115 121 118 124 128 129 129 119 116 118 118 120 119 123 121 118 116 123 117 115 113 116 116 122 126 125 126 128 124 125 127
87 95 94 102 105 110 112 104 96 109 114 120 124 110 107 128 134 132 128 123 128 128 128 121 122 122 122 120 114 116 123 127 126 124 121 120 117 116 101 114 110 111 119
102 102 110 98 94 113 112 115 116 124 125 127 123 133 135 139 134 132 129 127 129 130 121 126 122 126 129 128 130 128 127 125 118 103 113 107 107 107 98 97 93 90 91
110 114 100 113 98 105 120 122 123 119 125 135 138 140 136 136 135 134 132 127 130 132 129 132 129 122 118 116 114 105 104 106 106 101 98 97 97 95 94 93 94 94 93
117 113 100 115 121 125 128 130 131 138 141 145 140 132 131 130 129 133 131 132 127 126 124 119 110 108 110 106 105 98 94 94 91 89 86 87 84 86 86 88 89 88 87
117 117 123 126 128 132 131 139 146 149 149 137 134 133 132 127 128 119 112 116 113 111 105 104 85 83 81 79 32 80 80 81 80 80 78 77 76 75 75 76 77 78 79
98 118 126 133 135 136 143 151 157 143 137 132 123 116 111 110 110 106 100 98 90 83 80 75 40 50 48 47 51 53 56 58 61 64 64 63 63 66 67 71 71 71 73
130 137 133 144 146 150 152 147 129 122 119 115 111 111 102 99 92 80 72 75 75 76 57 59 62 58 57 53 52 53 54 54 55 57 56 56 57 57 58 59 54 57 63
Wind_Direction
267 272 272 282 284 281 283 281 282 283 281 286 286 285 276 289 292 300 304 307 307 315 316 311 311 310 311 312 320 309 318 317 334 335 322 306 289 279 264 238 234 230 229
267 272 267 268 276 281 278 284 285 282 286 287 283 284 291 292 298 295 299 304 314 315 313 311 310 306 308 309 308 313 315 323 319 339 335 313 296 282 265 235 234 227 231
283 274 275 275 279 283 279 285 283 284 284 284 288 291 289 292 301 296 296 306 310 307 309 307 306 306 306 306 307 307 315 317 323 320 343 333 307 282 263 232 232 230 229
278 282 278 279 278 280 280 282 281 282 285 288 289 289 289 291 295 296 287 308 310 307 305 303 304 303 303 305 307 308 310 313 318 325 329 342 322 293 261 235 235 232 231
272 272 274 275 276 278 280 283 280 284 286 288 292 295 295 296 295 299 307 306 305 303 301 299 302 302 302 304 303 307 308 312 314 315 322 322 330 299 271 247 241 235 236
274 274 272 272 277 278 282 285 285 285 290 293 293 296 301 298 302 305 305 303 301 299 299 299 298 299 300 301 303 305 304 306 309 313 311 312 315 310 285 262 254 238 241
274 277 276 276 280 282 285 284 286 289 291 287 297 297 298 289 303 307 308 308 304 302 299 300 299 300 300 300 300 296 298 297 296 303 308 310 301 308 293 271 256 249 243
275 277 275 281 282 282 283 285 288 290 293 286 296 295 299 301 306 306 306 305 303 302 301 300 298 296 293 293 292 296 296 295 295 293 286 287 288 299 299 289 262 250 238
277 279 279 278 280 281 285 286 283 286 293 294 297 299 298 302 300 301 301 300 298 299 298 297 294 294 292 290 290 291 291 291 287 281 292 287 278 279 284 283 287 258 254
277 277 277 282 281 284 284 289 291 294 290 298 298 298 298 299 299 299 299 298 298 296 294 293 291 288 288 289 288 281 289 281 285 285 282 286 282 278 271 273 274 268 277
277 278 280 282 284 286 288 286 294 294 295 295 297 299 300 301 302 298 297 293 294 295 293 288 288 291 288 286 286 286 288 287 285 285 284 282 281 277 271 281 275 265 272
275 278 280 285 284 290 289 291 290 292 293 295 297 297 297 295 298 295 292 294 293 293 294 290 290 290 290 289 286 284 284 283 282 282 279 279 279 280 278 261 275 277 258
277 283 284 284 285 288 286 289 291 293 296 296 295 294 296 295 296 296 291 293 297 289 289 291 291 281 284 281 280 283 281 275 278 276 276 273 271 272 271 272 273 270 267
278 280 282 284 286 287 288 291 293 295 297 298 298 297 295 293 295 295 291 291 290 296 293 285 289 286 282 278 277 276 275 274 275 270 270 270 270 269 266 265 267 268 267
280 280 281 283 286 288 291 294 296 297 296 297 298 297 294 289 290 290 293 290 296 295 296 294 293 291 285 282 285 274 273 272 281 270 268 267 265 264 265 263 261 258 262
281 282 285 288 286 291 291 291 291 293 295 295 295 293 286 288 291 298 289 287 296 296 293 293 288 291 279 285 286 278 276 271 267 266 269 265 265 263 263 258 267 261 256
281 283 286 289 290 288 287 288 290 290 290 290 291 290 294 293 292 296 287 293 300 293 288 292 291 287 284 288 276 286 276 286 267 265 266 270 265 262 266 261 259 256 255
283 284 283 288 288 287 287 289 288 291 292 292 294 291 290 290 295 293 295 298 298 295 290 292 292 279 290 288 285 274 281 276 273 266 264 266 265 263 266 261 255 255 256
288 284 290 292 290 292 287 291 291 286 293 295 295 296 295 293 297 298 298 295 294 293 291 291 290 290 289 287 284 282 280 278 273 275 271 270 269 266 262 267 261 259 256
287 292 288 292 293 291 291 296 295 296 290 296 295 298 301 298 300 299 296 294 293 291 290 289 288 289 287 285 282 280 281 281 279 278 275 275 275 275 266 270 269 268 263
297 280 291 291 291 294 296 292 292 291 295 291 298 301 301 301 298 295 294 293 293 292 290 291 288 288 287 285 284 283 282 282 282 282 278 277 274 275 274 272 270 268 265
293 296 297 298 290 293 294 295 295 298 295 299 300 301 301 297 294 294 293 293 292 292 291 289 288 287 286 286 287 286 283 283 281 280 278 277 275 275 273 272 271 269 267
297 295 294 296 296 296 298 299 299 301 302 304 302 300 297 294 294 292 291 290 289 288 287 286 288 287 285 286 285 285 283 282 282 281 279 277 275 274 273 269 266 268 266
298 299 298 299 300 300 301 303 304 305 303 299 299 295 290 286 289 287 289 287 287 287 288 288 290 289 288 287 281 283 282 281 280 279 278 276 275 273 271 270 268 267 266
296 300 300 301 302 303 305 305 305 298 297 294 287 289 290 290 290 290 291 291 291 293 292 291 294 295 294 292 288 285 282 280 280 279 278 278 276 275 273 270 269 268 267
302 302 303 305 306 305 305 303 291 287 290 292 291 291 293 292 293 295 295 293 293 291 295 295 294 294 295 291 289 288 288 286 284 281 282 280 277 275 275 274 274 271 266